• In Uzbekistan
  • List of Countries
  • For 7 days
  • Water Temperature
  • Satellite Maps
  • Weather Map
  • Weather Widgets
  • user-avatar
    Login

    Hourly Weather Etchmiadzin

    Today, 23 April, Monday

    Time Temperature Precipitation Wind Pressure Humidity
    00:00 +10°C° 0 mm 1 mps 681 mmHg 62%
    01:00 +9°C° 0 mm 1 mps 681 mmHg 63%
    02:00 +9°C° 0 mm 1 mps 681 mmHg 63%
    03:00 +9°C° 0 mm 1 mps 681 mmHg 66%
    04:00 +9°C° 0 mm 1 mps 681 mmHg 65%
    05:00 +9°C° 0 mm 1 mps 681 mmHg 65%
    06:00 +9°C° 0 mm 1 mps 681 mmHg 64%
    07:00 +10°C° 0 mm 2 mps 681 mmHg 56%
    08:00 +13°C° 0 mm 2 mps 681 mmHg 49%
    09:00 +13°C° 0 mm 3 mps 681 mmHg 41%
    10:00 +14°C° 0 mm 3 mps 681 mmHg 38%
    11:00 +17°C° 0 mm 3 mps 681 mmHg 35%
    12:00 +18°C° 0 mm 3 mps 681 mmHg 32%
    13:00 +18°C° 0 mm 3 mps 681 mmHg 31%
    14:00 +19°C° 0 mm 3 mps 681 mmHg 30%
    15:00 +20°C° 0 mm 3 mps 681 mmHg 29%
    16:00 +19°C° 0 mm 3 mps 682 mmHg 31%
    17:00 +18°C° 0 mm 3 mps 682 mmHg 34%
    18:00 +18°C° 0 mm 3 mps 682 mmHg 36%
    19:00 +16°C° 0 mm 2 mps 682 mmHg 39%
    20:00 +14°C° 0 mm 2 mps 682 mmHg 42%
    21:00 +13°C° 0 mm 2 mps 683 mmHg 46%
    22:00 +12°C° 0 mm 2 mps 683 mmHg 46%
    23:00 +12°C° 0 mm 1 mps 683 mmHg 47%

    Tomorrow, 24 April, Tuesday

    Time Temperature Precipitation Wind Pressure Humidity
    00:00 +11°C° 0 mm 1 mps 683 mmHg 47%
    01:00 +11°C° 0 mm 1 mps 683 mmHg 46%
    02:00 +10°C° 0 mm 1 mps 683 mmHg 45%
    03:00 +10°C° 0 mm 1 mps 684 mmHg 43%
    04:00 +10°C° 0 mm 1 mps 684 mmHg 43%
    05:00 +10°C° 0 mm 1 mps 684 mmHg 43%
    06:00 +11°C° 0 mm 1 mps 685 mmHg 43%
    07:00 +12°C° 0 mm 1 mps 685 mmHg 40%
    08:00 +14°C° 0 mm 1 mps 685 mmHg 36%
    09:00 +16°C° 0 mm 2 mps 685 mmHg 33%
    10:00 +17°C° 0 mm 2 mps 685 mmHg 32%
    11:00 +18°C° 0 mm 2 mps 686 mmHg 31%
    12:00 +19°C° 0 mm 2 mps 686 mmHg 30%
    13:00 +20°C° 0 mm 3 mps 686 mmHg 30%
    14:00 +20°C° 0 mm 3 mps 685 mmHg 29%
    15:00 +21°C° 0 mm 3 mps 685 mmHg 28%
    16:00 +20°C° 0 mm 3 mps 686 mmHg 31%
    17:00 +20°C° 0 mm 3 mps 686 mmHg 33%
    18:00 +19°C° 0 mm 3 mps 686 mmHg 36%
    19:00 +18°C° 0 mm 2 mps 686 mmHg 39%
    20:00 +16°C° 0 mm 2 mps 687 mmHg 43%
    21:00 +15°C° 0 mm 2 mps 687 mmHg 46%
    22:00 +14°C° 0 mm 2 mps 687 mmHg 49%
    23:00 +14°C° 0 mm 2 mps 687 mmHg 52%

    Day after tomorrow, 25 April, Wednesday

    Time Temperature Precipitation Wind Pressure Humidity
    00:00 +13°C° 0 mm 1 mps 688 mmHg 54%
    01:00 +13°C° 0 mm 1 mps 688 mmHg 56%
    02:00 +12°C° 0 mm 1 mps 688 mmHg 58%
    03:00 +12°C° 0 mm 1 mps 687 mmHg 60%
    04:00 +12°C° 0 mm 1 mps 688 mmHg 59%
    05:00 +12°C° 0 mm 1 mps 688 mmHg 58%
    06:00 +12°C° 0 mm 1 mps 688 mmHg 57%
    07:00 +14°C° 0 mm 1 mps 688 mmHg 50%
    08:00 +16°C° 0 mm 1 mps 688 mmHg 43%
    09:00 +18°C° 0 mm 2 mps 688 mmHg 36%
    10:00 +19°C° 0 mm 2 mps 688 mmHg 34%
    11:00 +21°C° 0 mm 2 mps 688 mmHg 32%
    12:00 +23°C° 0 mm 2 mps 688 mmHg 30%
    13:00 +23°C° 0 mm 2 mps 687 mmHg 29%
    14:00 +24°C° 0 mm 2 mps 687 mmHg 28%
    15:00 +24°C° 0 mm 2 mps 687 mmHg 27%
    16:00 +23°C° 0 mm 2 mps 687 mmHg 30%
    17:00 +23°C° 0 mm 2 mps 686 mmHg 33%
    18:00 +22°C° 0 mm 1 mps 686 mmHg 36%
    19:00 +21°C° 0 mm 1 mps 687 mmHg 41%
    20:00 +18°C° 0 mm 2 mps 687 mmHg 45%
    21:00 +17°C° 0 mm 2 mps 687 mmHg 50%
    22:00 +16°C° 0 mm 2 mps 687 mmHg 54%
    23:00 +16°C° 0 mm 2 mps 687 mmHg 57%

    26 April, Thursday

    Time Temperature Precipitation Wind Pressure Humidity
    00:00 +15°C° 0 mm 2 mps 688 mmHg 61%
    01:00 +15°C° 0 mm 1 mps 687 mmHg 62%
    02:00 +14°C° 0 mm 1 mps 687 mmHg 64%
    03:00 +14°C° 0 mm 1 mps 687 mmHg 65%
    04:00 +14°C° 0 mm 1 mps 687 mmHg 65%
    05:00 +14°C° 0 mm 1 mps 687 mmHg 65%
    06:00 +14°C° 0 mm 1 mps 688 mmHg 64%
    07:00 +16°C° 0 mm 1 mps 688 mmHg 56%
    08:00 +19°C° 0 mm 1 mps 688 mmHg 47%
    09:00 +21°C° 0 mm 1 mps 688 mmHg 38%
    10:00 +21°C° 0 mm 2 mps 688 mmHg 34%
    11:00 +24°C° 0 mm 2 mps 688 mmHg 31%
    12:00 +25°C° 0 mm 2 mps 688 mmHg 27%
    13:00 +25°C° 0 mm 2 mps 687 mmHg 26%
    14:00 +26°C° 0 mm 2 mps 687 mmHg 25%
    15:00 +26°C° 0 mm 2 mps 687 mmHg 24%
    16:00 +25°C° 0 mm 2 mps 686 mmHg 27%
    17:00 +24°C° 0 mm 1 mps 686 mmHg 31%
    18:00 +24°C° 0 mm 1 mps 686 mmHg 34%
    19:00 +22°C° 0 mm 1 mps 687 mmHg 38%
    20:00 +20°C° 0 mm 1 mps 687 mmHg 42%
    21:00 +19°C° 0 mm 1 mps 687 mmHg 47%
    22:00 +18°C° 0 mm 1 mps 687 mmHg 51%
    23:00 +18°C° 0 mm 1 mps 687 mmHg 56%

    27 April, Friday

    Time Temperature Precipitation Wind Pressure Humidity
    00:00 +16°C° 0 mm 1 mps 687 mmHg 61%
    01:00 +16°C° 0 mm 2 mps 687 mmHg 63%
    02:00 +16°C° 0 mm 2 mps 687 mmHg 65%
    03:00 +15°C° 0 mm 2 mps 686 mmHg 67%
    04:00 +16°C° 0 mm 2 mps 686 mmHg 67%
    05:00 +16°C° 0 mm 1 mps 687 mmHg 66%
    06:00 +16°C° 0 mm 1 mps 687 mmHg 66%
    07:00 +19°C° 0 mm 1 mps 687 mmHg 57%
    08:00 +21°C° 0 mm 1 mps 687 mmHg 48%
    09:00 +23°C° 0 mm 2 mps 687 mmHg 39%
    10:00 +24°C° 0 mm 2 mps 687 mmHg 36%
    11:00 +25°C° 0 mm 2 mps 686 mmHg 34%
    12:00 +26°C° 0 mm 2 mps 686 mmHg 31%
    13:00 +27°C° 0 mm 2 mps 686 mmHg 31%
    14:00 +27°C° 0 mm 2 mps 685 mmHg 31%
    15:00 +27°C° 0 mm 3 mps 685 mmHg 30%
    16:00 +26°C° 0.3 mm 2 mps 685 mmHg 35%
    17:00 +25°C° 0.3 mm 2 mps 685 mmHg 39%
    18:00 +24°C° 0.3 mm 1 mps 685 mmHg 44%
    19:00 +23°C° 0.2 mm 1 mps 685 mmHg 47%
    20:00 +21°C° 0.2 mm 2 mps 686 mmHg 50%
    21:00 +20°C° 0.2 mm 2 mps 686 mmHg 53%
    22:00 +19°C° 0.1 mm 2 mps 686 mmHg 57%
    23:00 +19°C° 0.1 mm 2 mps 685 mmHg 61%

    28 April, Saturday

    Time Temperature Precipitation Wind Pressure Humidity
    00:00 +18°C° 0.1 mm 2 mps 685 mmHg 65%
    01:00 +19°C° 0.2 mm 1 mps 685 mmHg 68%
    02:00 +18°C° 0.2 mm 1 mps 685 mmHg 71%
    03:00 +18°C° 0.2 mm 1 mps 684 mmHg 73%
    04:00 +18°C° 0.1 mm 1 mps 684 mmHg 74%
    05:00 +18°C° 0.1 mm 1 mps 684 mmHg 74%
    06:00 +18°C° 0.1 mm 1 mps 684 mmHg 74%
    07:00 +19°C° 0.1 mm 1 mps 684 mmHg 68%
    08:00 +20°C° 0.1 mm 1 mps 685 mmHg 62%
    09:00 +22°C° 0.1 mm 1 mps 685 mmHg 55%
    10:00 +23°C° 0.1 mm 2 mps 684 mmHg 52%
    11:00 +24°C° 0.1 mm 2 mps 684 mmHg 49%
    12:00 +25°C° 0.1 mm 2 mps 684 mmHg 46%
    13:00 +25°C° 0.5 mm 3 mps 684 mmHg 45%
    14:00 +25°C° 0.5 mm 3 mps 684 mmHg 45%
    15:00 +25°C° 0.5 mm 3 mps 684 mmHg 45%
    16:00 +24°C° 0.5 mm 3 mps 684 mmHg 48%
    17:00 +23°C° 0.5 mm 2 mps 684 mmHg 52%
    18:00 +21°C° 0.5 mm 2 mps 684 mmHg 55%
    19:00 +20°C° 0.5 mm 2 mps 684 mmHg 60%
    20:00 +19°C° 0.5 mm 2 mps 684 mmHg 64%
    21:00 +18°C° 0.5 mm 2 mps 685 mmHg 69%
    22:00 +18°C° 0.3 mm 2 mps 685 mmHg 71%
    23:00 +18°C° 0.3 mm 1 mps 684 mmHg 73%
    Show more